[[[{"header":{"parameterUnit":"kt","parameterCategory":2,"dx":1,"dy":1,"la1":30.253999710083008,"la2":30.299108505249023,"lo1":-89.0895004272461,"lo2":-89.04439544677734,"nx":28,"ny":28,"refTime":"2022-10-05T21:00:00:Z","depth":0,"parameterNumber":1,"parameterNumberName":"U-component_of_WINDS"},"data":[-1.1743,-1.181,-1.1797,-1.1867,-1.1867,-1.1914,-1.1926,-1.1941,-1.1949,-1.2002,-1.2031,-1.2024,-1.2027,-1.2058,-1.2089,-1.2085,-1.2101,-1.2134,-1.2125,-1.1988,-1.1968,-1.195,-1.1934,-1.2136,-1.2136,-1.227,-1.2272,-1.2273,-1.1642,-1.1643,-1.1676,-1.17,-1.1728,-1.1688,-1.1703,-1.173,-1.1773,-1.1783,-1.181,-1.1856,-1.1891,-1.1883,-1.1915,-1.1947,-1.1931,-1.1957,-1.1956,-1.1958,-1.181,-1.1793,-1.1969,-1.1969,-1.1969,-1.1969,-1.1969,-1.1969,-1.1456,-1.1497,-1.1503,-1.1539,-1.1547,-1.1563,-1.16,-1.1591,-1.1624,-1.1655,-1.1633,-1.1681,-1.1689,-1.1721,-1.1729,-1.1766,-1.1736,-1.1761,-1.1768,-1.1775,-1.1786,-1.1599,-1.177,-1.177,-1.1769,-1.1769,-1.1768,0,-1.1317,-1.1303,-1.1334,-1.1362,-1.1387,-1.1407,-1.1423,-1.1445,-1.1412,-1.1441,-1.1481,-1.1502,-1.1544,-1.1581,-1.1607,-1.161,-1.1575,-1.1569,-1.1586,-1.1601,-1.161,-1.1609,-1.1371,-1.1565,-1.1563,-1.1562,-1.1561,-1.156,-1.1132,-1.118,-1.1181,-1.1204,-1.121,-1.1249,-1.1269,-1.1236,-1.126,-1.1275,-1.1313,-1.1348,-1.1376,-1.1443,-1.1434,-1.1465,-1.1449,-1.1525,-1.1454,-1.1464,-1.1455,-1.1454,-1.146,-1.1541,-1.1544,-1.1546,-1.1547,0,-1.1029,-1.1008,-1.1079,-1.1074,-1.1075,-1.1127,-1.1124,-1.1163,-1.1151,-1.1203,-1.1214,-1.1195,-1.1235,-1.1214,-1.1255,-1.1243,-1.1331,-1.1312,-1.1328,-1.1325,-1.1393,-1.1388,-1.1612,-1.164,-1.1426,-1.1428,-1.143,0,-1.0865,-1.093,-1.0894,-1.0937,-1.1007,-1.0973,-1.1044,-1.104,-1.1047,-1.1088,-1.1042,-1.1082,-1.1048,-1.1084,-1.1066,-1.1133,-1.114,-1.1136,-1.1132,-1.1143,-1.1144,-1.1159,-1.1151,-1.1115,-1.1113,-1.1112,-1.1112,0,-1.0711,-1.0766,-1.0834,-1.0844,-1.0847,-1.088,-1.0882,-1.089,-1.0911,-1.0933,-1.0947,-1.0976,-1.0993,-1.1016,-1.0994,-1.0947,-1.1074,-1.1005,-1.1071,-1.1072,-1.1104,-1.1104,-1.1302,-1.111,-1.111,-1.1109,-1.1109,0,-1.0576,-1.06,-1.07,-1.0702,-1.0719,-1.0763,-1.079,-1.0823,-1.0834,-1.0825,-1.0843,-1.0812,-1.0867,-1.08,-1.0876,-1.0822,-1.0841,-1.0842,-1.0846,-1.0854,-1.0781,-1.0901,-1.1089,-1.111,-1.0855,-1.0853,-1.0851,0,-1.0407,-1.0502,-1.0474,-1.0571,-1.0613,-1.056,-1.0608,-1.0619,-1.0612,-1.0647,-1.0638,-1.0678,-1.0624,-1.0634,-1.0673,-1.0668,-1.0738,-1.0657,-1.0711,-1.0713,-1.0713,-1.0885,-1.0921,-1.1049,-1.0823,-1.0826,-1.0828,0,-1.0274,-1.0277,-1.0296,-1.0307,-1.0316,-1.035,-1.0406,-1.0438,-1.0462,-1.0479,-1.0527,-1.058,-1.0543,-1.056,-1.0537,-1.058,-1.0689,-1.0534,-1.0534,-1.0566,-1.0807,-1.0841,-1.0862,-1.0665,-1.0668,-1.0671,-1.0807,0,-1.0081,-1.0126,-1.0176,-1.02,-1.0223,-1.0282,-1.0259,-1.0286,-1.0262,-1.0254,-1.0322,-1.0326,-1.036,-1.0378,-1.0355,-1.046,-1.044,-1.0399,-1.0336,-1.0448,-1.0492,-1.051,-1.0272,-1.027,-1.0268,-1.0267,0,0,-0.9927,-0.9991,-0.9959,-1.0012,-1.003,-0.9975,-1.004,-1.0051,-1.0075,-1.0089,-1.0053,-1.0132,-1.0138,-1.0223,-1.0255,-1.0268,-1.0286,-1.0248,-1.0394,-1.0408,-1.0422,-1.0469,-1.0488,-1.0264,-1.0263,-1.0262,-1.0262,0,-0.9853,-0.9858,-0.9922,-0.9931,-0.9945,-0.9933,-0.9948,-0.9952,-0.995,-1.0015,-0.9972,-1.0009,-1.0073,-1.0086,-1.0101,-1.0236,-1.0203,-1.0247,-1.0328,-1.0378,-1.0394,-1.0409,-1.0459,-1.0478,-1.0258,-1.0258,-1.0258,0,-0.972,-0.9723,-0.9751,-0.9788,-0.9797,-0.9841,-0.9768,-0.9817,-0.985,-0.979,-0.9857,-0.9857,-0.9872,-0.9954,-0.999,-0.9959,-1.0128,-1.007,-1.008,-1.0085,-1.0132,-1.0152,-1.017,-0.9937,-0.9936,-0.9935,0,0,-0.966,-0.9701,-0.9695,-0.9771,-0.9779,-0.9762,-0.9783,-0.9762,-0.9777,-0.9783,-0.9783,-0.9798,-0.9835,-0.986,-0.9894,-0.9987,-0.9989,-1.0031,-1.0047,-1.0059,-1.0071,-1.0121,-1.0141,-0.9932,-0.9931,-0.9931,0,0,-0.9632,-0.9628,-0.9601,-0.9686,-0.97,-0.97,-0.9748,-0.9716,-0.9744,-0.9735,-0.9703,-0.9706,-0.9782,-0.9785,-0.9735,-0.9872,-0.9809,-0.9821,-0.9868,-0.9887,-0.9902,-0.9901,-0.9664,0,0,0,0,0,-0.9546,-0.9628,-0.9604,-0.9615,-0.9662,-0.9713,-0.9719,-0.9694,-0.965,-0.9688,-0.9683,-0.9645,-0.9751,-0.9707,-0.9719,-0.9776,-0.9882,-0.989,-0.9899,-0.9982,-1.0002,-1.0018,0,0,0,0,0,0,-0.955,-0.9564,-0.9601,-0.9605,-0.9616,-0.971,-0.9631,-0.9626,-0.9646,-0.9638,-0.9647,-0.9646,-0.9626,-0.9699,-0.971,-0.9765,-0.966,-0.9885,-0.9893,-0.9899,-0.9988,-1.0005,-1.0019,0,0,0,0,0,-0.9553,-0.9564,-0.9647,-0.9604,-0.9613,-0.9599,-0.9627,-0.9623,-0.9638,-0.9631,-0.9628,-0.9617,-0.9628,-0.9636,-0.9705,-0.976,-0.9652,-0.9657,-0.989,-0.9896,-0.9901,-0.9996,0,0,0,0,0,0,-0.9556,-0.9561,-0.9648,-0.965,-0.9572,-0.9594,-0.9596,-0.962,-0.9629,-0.9627,-0.9599,-0.9592,-0.9631,-0.9636,-0.9642,-0.976,-0.9646,-0.965,-0.9653,-0.9894,-0.9899,-0.9903,0,0,0,0,0,0,-0.9555,-0.9563,-0.9649,-0.961,-0.9607,-0.9588,-0.9591,-0.9646,-0.963,-0.9597,-0.9592,-0.9596,-0.9622,-0.9637,-0.9641,-0.9729,-0.9641,-0.9645,-0.9648,-0.965,-0.9898,-0.9902,0,0,0,0,0,0,-0.9558,-0.9565,-0.9609,-0.9607,-0.9604,-0.9623,-0.9637,-0.9687,-0.9595,-0.9597,-0.9586,-0.9582,-0.9624,-0.9628,-0.9641,-0.9727,-0.9729,-0.9641,-0.9644,-0.9646,-0.9647,0,0,0,0,0,0,0,-0.956,-0.952,-0.9637,-0.9604,-0.9602,-0.9667,-0.9667,-0.9668,-0.9594,-0.9591,-0.9587,-0.9584,-0.9618,-0.9622,-0.9627,-0.9726,0,0,-0.9641,-0.9643,0,0,0,0,0,0,0,0,-0.9517,-0.9519,-0.9637,-0.9637,-0.9638,-0.9667,-0.9667,-0.9668,-0.9594,-0.9591,-0.9588,-0.9585,-0.9619,-0.9622,-0.9626,0,0,0,0,0,0,0,0,0,0,0,0,0,0,0,-0.9637,-0.9637,0,-0.9667,-0.9667,-0.9668,-0.9593,-0.9591,-0.9589,-0.9587,-0.962,-0.9623,-0.9626,0,0,0,0,0,0,0,0,0,0,0,0,0,0,0,0,0,0,0,0,0,0,0,0,0,0,0,0,0,0,0,0,0,0,0,0,0,0,0,0,0,0,0,0,0,0,0,0,0,0,0,0,0,0,0,0,0,0,0,0,0,0,0,0,0,0,0,0,0]}],[{"header":{"parameterUnit":"kt","parameterCategory":2,"dx":1,"dy":1,"la1":30.253999710083008,"la2":30.299108505249023,"lo1":-89.0895004272461,"lo2":-89.04439544677734,"nx":28,"ny":28,"refTime":"2022-10-05T21:00:00:Z","depth":0,"parameterNumber":2,"parameterNumberName":"V-component_of_WINDS"},"data":[-4.9486,-4.9596,-4.9611,-4.9743,-4.9777,-4.987,-4.9907,-4.9956,-4.9997,-5.0107,-5.0172,-5.0195,-5.024,-5.0319,-5.0389,-5.0397,-5.0426,-5.0456,-5.0461,-5.0317,-5.0298,-5.028,-5.0256,-5.0462,-5.0462,-5.061,-5.0611,-5.0612,-4.9381,-4.9418,-4.9491,-4.9572,-4.9635,-4.9616,-4.9677,-4.9731,-4.9813,-4.9864,-4.9928,-5.0025,-5.0101,-5.0137,-5.0212,-5.0262,-5.0257,-5.0282,-5.028,-5.0287,-5.0133,-5.0108,-5.0286,-5.0285,-5.0285,-5.0285,-5.0285,-5.0285,-4.9196,-4.9261,-4.9318,-4.9398,-4.9442,-4.9495,-4.9559,-4.9587,-4.9658,-4.974,-4.974,-4.9832,-4.9884,-4.998,-5.0014,-5.0085,-5.0059,-5.009,-5.0098,-5.0107,-5.0116,-4.9906,-5.0097,-5.0097,-5.0097,-5.0096,-5.0096,0,-4.9065,-4.9072,-4.9143,-4.9219,-4.9278,-4.9336,-4.9392,-4.9432,-4.9449,-4.9506,-4.9589,-4.9639,-4.9736,-4.9815,-4.9887,-4.9916,-4.9901,-4.9899,-4.9921,-4.9925,-4.9919,-4.9926,-4.9677,-4.9893,-4.9892,-4.989,-4.989,-4.9889,-4.8881,-4.8954,-4.9019,-4.9067,-4.9102,-4.9178,-4.9226,-4.9235,-4.9286,-4.9354,-4.941,-4.9488,-4.9552,-4.9681,-4.9709,-4.9781,-4.9774,-4.9856,-4.9785,-4.9785,-4.9779,-4.9776,-4.9784,-4.9871,-4.9873,-4.9875,-4.9876,0,-4.8776,-4.8798,-4.8915,-4.8972,-4.8988,-4.9064,-4.9112,-4.9175,-4.9194,-4.9284,-4.9306,-4.9335,-4.9415,-4.943,-4.9523,-4.9529,-4.9653,-4.9643,-4.9636,-4.9636,-4.9713,-4.9707,-4.9955,-4.9989,-4.9773,-4.9775,-4.9776,0,-4.8629,-4.8724,-4.8751,-4.8818,-4.8923,-4.8931,-4.9035,-4.9061,-4.9107,-4.9178,-4.9162,-4.9228,-4.9237,-4.9306,-4.9314,-4.9417,-4.9434,-4.9445,-4.9446,-4.9448,-4.9447,-4.9476,-4.9467,-4.9443,-4.9442,-4.9441,-4.944,0,-4.8466,-4.8589,-4.8698,-4.8729,-4.8798,-4.8849,-4.8879,-4.893,-4.8976,-4.9037,-4.9067,-4.9137,-4.9176,-4.923,-4.924,-4.9192,-4.9366,-4.9301,-4.9378,-4.9378,-4.9417,-4.9415,-4.9629,-4.9438,-4.9438,-4.9437,-4.9437,0,-4.835,-4.8415,-4.8567,-4.8625,-4.8657,-4.8727,-4.8799,-4.8862,-4.8916,-4.8926,-4.8974,-4.8966,-4.9056,-4.8991,-4.9115,-4.905,-4.9088,-4.9106,-4.9112,-4.9123,-4.9051,-4.9173,-4.9373,-4.9396,-4.9131,-4.9128,-4.9126,0,-4.8159,-4.8318,-4.8326,-4.847,-4.8546,-4.8526,-4.8603,-4.8651,-4.8672,-4.8738,-4.8758,-4.8833,-4.8788,-4.8813,-4.8872,-4.8897,-4.8982,-4.8885,-4.8981,-4.8984,-4.8971,-4.9155,-4.9182,-4.9327,-4.9093,-4.9097,-4.9099,0,-4.8013,-4.8097,-4.8122,-4.8159,-4.8225,-4.8287,-4.8375,-4.8452,-4.8496,-4.855,-4.8625,-4.8728,-4.8699,-4.874,-4.874,-4.8801,-4.8925,-4.8761,-4.8762,-4.8792,-4.9077,-4.9104,-4.9128,-4.8911,-4.8915,-4.8918,-4.9073,0,-4.784,-4.7921,-4.7989,-4.8069,-4.8119,-4.8209,-4.8227,-4.8278,-4.8274,-4.8293,-4.8401,-4.8443,-4.8518,-4.8548,-4.8543,-4.8678,-4.8658,-4.8625,-4.8565,-4.8684,-4.8736,-4.8757,-4.8486,-4.8484,-4.8483,-4.8482,0,0,-4.7652,-4.7769,-4.7775,-4.7861,-4.7905,-4.7882,-4.7976,-4.8015,-4.8093,-4.8123,-4.8089,-4.8241,-4.8276,-4.8406,-4.8444,-4.8473,-4.8499,-4.8456,-4.8626,-4.8642,-4.8657,-4.8713,-4.8734,-4.8479,-4.8479,-4.8478,-4.8478,0,-4.7594,-4.7632,-4.7726,-4.7767,-4.7827,-4.7843,-4.7866,-4.7921,-4.7938,-4.8043,-4.8022,-4.8088,-4.8208,-4.8249,-4.8285,-4.8441,-4.8421,-4.8462,-4.8541,-4.8611,-4.8629,-4.8645,-4.8703,-4.8723,-4.8474,-4.8474,-4.8475,0,-4.7455,-4.7497,-4.7544,-4.764,-4.7679,-4.7757,-4.7698,-4.7781,-4.7838,-4.7806,-4.7911,-4.7936,-4.7991,-4.811,-4.8164,-4.8135,-4.8349,-4.8283,-4.8292,-4.8299,-4.8367,-4.8389,-4.8408,-4.8156,-4.8155,-4.8153,0,0,-4.7402,-4.7477,-4.7524,-4.7629,-4.7655,-4.768,-4.7722,-4.7723,-4.7774,-4.7794,-4.7826,-4.7876,-4.7946,-4.7991,-4.8057,-4.8185,-4.8198,-4.8243,-4.8258,-4.827,-4.8284,-4.8355,-4.8376,-4.8149,-4.8149,-4.8149,0,0,-4.7376,-4.7436,-4.7423,-4.7547,-4.7598,-4.765,-4.7713,-4.7698,-4.776,-4.7752,-4.7754,-4.7767,-4.7878,-4.7903,-4.7843,-4.8036,-4.7976,-4.799,-4.8017,-4.8036,-4.8051,-4.8043,-4.7788,0,0,0,0,0,-4.7325,-4.7428,-4.7416,-4.744,-4.756,-4.7657,-4.7672,-4.7678,-4.7636,-4.7686,-4.771,-4.7685,-4.7872,-4.7818,-4.7841,-4.7909,-4.8092,-4.8103,-4.8112,-4.8176,-4.8196,-4.8212,0,0,0,0,0,0,-4.7335,-4.7364,-4.7414,-4.747,-4.7497,-4.7653,-4.7583,-4.7588,-4.7631,-4.7625,-4.7682,-4.7687,-4.7693,-4.7807,-4.7827,-4.7892,-4.7781,-4.8096,-4.8105,-4.8113,-4.8183,-4.8199,-4.8213,0,0,0,0,0,-4.7342,-4.7365,-4.7557,-4.7469,-4.7492,-4.7525,-4.7579,-4.7583,-4.7616,-4.7654,-4.7658,-4.7617,-4.7694,-4.7712,-4.7819,-4.7883,-4.7767,-4.7775,-4.8102,-4.8109,-4.8115,-4.8191,0,0,0,0,0,0,-4.7348,-4.7368,-4.7562,-4.757,-4.743,-4.7516,-4.753,-4.7578,-4.7642,-4.7648,-4.7588,-4.7583,-4.7697,-4.771,-4.7723,-4.7879,-4.7756,-4.7763,-4.7768,-4.8107,-4.8112,-4.8117,0,0,0,0,0,0,-4.7356,-4.7375,-4.7566,-4.7517,-4.7519,-4.7508,-4.752,-4.7611,-4.7643,-4.7573,-4.757,-4.7585,-4.7676,-4.7709,-4.7719,-4.7861,-4.7747,-4.7754,-4.7759,-4.7763,-4.8111,-4.8115,0,0,0,0,0,0,-4.7364,-4.738,-4.7516,-4.7517,-4.7518,-4.7601,-4.7588,-4.7711,-4.7603,-4.757,-4.7594,-4.7589,-4.7676,-4.7686,-4.7717,-4.7854,-4.7859,-4.7747,-4.7752,-4.7756,-4.7758,0,0,0,0,0,0,0,-4.737,-4.7261,-4.7519,-4.7517,-4.7518,-4.7637,-4.7639,-4.7641,-4.7602,-4.7598,-4.7595,-4.7591,-4.7705,-4.7713,-4.7722,-4.7849,0,0,-4.7747,-4.775,0,0,0,0,0,0,0,0,-4.7254,-4.7259,-4.7519,-4.7521,-4.7522,-4.7638,-4.7639,-4.7641,-4.7602,-4.7598,-4.7595,-4.7592,-4.7708,-4.7714,-4.7721,0,0,0,0,0,0,0,0,0,0,0,0,0,0,0,-4.7519,-4.7521,0,-4.7638,-4.7639,-4.7641,-4.7601,-4.7599,-4.7596,-4.7594,-4.7709,-4.7715,-4.772,0,0,0,0,0,0,0,0,0,0,0,0,0,0,0,0,0,0,0,0,0,0,0,0,0,0,0,0,0,0,0,0,0,0,0,0,0,0,0,0,0,0,0,0,0,0,0,0,0,0,0,0,0,0,0,0,0,0,0,0,0,0,0,0,0,0,0,0,0]}]]]